Change the Weather History Date:

Friday, February 22, 2013

  Actual Average Record
Temperature  
Mean Temperature 24 °F 26 °F  
Max Temperature 32 °F 34 °F 60 °F (1997)
Min Temperature 15 °F 19 °F -5 °F (1963)
Degree Days  
Heating Degree Days 41 39  
Month to date heating degree days 940 899  
Since 1 July heating degree days 4683 4971  
Cooling Degree Days 0 0  
Month to date cooling degree days 0 0  
Year to date cooling degree days 0 0  
Moisture  
Dew Point 17 °F    
Average Humidity 73    
Maximum Humidity 92    
Minimum Humidity 54    
Precipitation  
Precipitation T in 0.08 in 0.64 in (1974)
Month to date precipitation 1.08 1.78  
Year to date precipitation 3.33 4.23  
Snow  
Snow T in 0.60 in 2.90 in (1980)
Month to date snowfall 16.1 13.4  
Since 1 July snowfall 50.3 60.2  
Snow Depth 6.00 in    
Sea Level Pressure  
Sea Level Pressure 30.28 in    
Wind  
Wind Speed 9 mph (SE)    
Max Wind Speed 17 mph    
Max Gust Speed 26 mph    
Visibility 10 miles    
Events      
T = Trace of Precipitation, MM = Missing Value Source: NWS Daily Summary

Daily Weather History Graph

Daily Weather History Graph

Search for Another Location

Airport or City:

Trip Planner

Search our weather history database for the weather conditions in past years. The results will help you decide how hot, cold, wet, or windy it might be!

Date:

Astronomy

Feb. 22, 2013 Rise Set
Actual Time 6:49 AM EST 5:45 PM EST
Civil Twilight 6:21 AM EST 6:14 PM EST
Nautical Twilight 5:48 AM EST 6:46 PM EST
Astronomical Twilight 5:16 AM EST 7:19 PM EST
Moon 2:52 PM EST (2/22) 4:35 AM EST (2/22)
Length of Visible Light 11h 52m
Length of Day
10h 55m
Waxing Gibbous, 90% of the Moon is Illuminated
Feb 22
Waxing Gibbous
Feb 25
Full
Mar 4
Last Quarter
Mar 11
New
Mar 19
First Quarter

Hourly Weather History & Observations

Time (EST) Temp. Windchill Dew Point Humidity Pressure Visibility Wind Dir Wind Speed Gust Speed Precip Events Conditions
12:53 AM 16.0 °F 6.3 °F 12.9 °F 88% 30.33 in 10.0 mi NNE 6.9 mph - N/A   Overcast
1:53 AM 16.0 °F 10.4 °F 12.9 °F 88% 30.37 in 10.0 mi WNW 3.5 mph - N/A   Overcast
2:12 AM 15.8 °F 6.1 °F 12.2 °F 86% 30.27 in 10.0 mi NNW 6.9 mph - N/A   Overcast
2:53 AM 15.8 °F 8.6 °F 12.2 °F 86% 30.28 in 10.0 mi North 4.6 mph - N/A   Overcast
3:53 AM 17.1 °F - 14.0 °F 88% 30.38 in 10.0 mi Calm Calm - N/A   Overcast
4:53 AM 17.1 °F 7.6 °F 14.0 °F 88% 30.36 in 10.0 mi ENE 6.9 mph - N/A   Overcast
5:53 AM 17.1 °F 8.7 °F 14.0 °F 88% 30.37 in 10.0 mi ENE 5.8 mph - N/A   Overcast
6:53 AM 17.1 °F 8.7 °F 14.0 °F 88% 30.38 in 10.0 mi East 5.8 mph - N/A   Overcast
7:53 AM 17.1 °F - 14.0 °F 88% 30.38 in 10.0 mi Calm Calm - N/A   Overcast
8:53 AM 18.0 °F 9.8 °F 15.1 °F 88% 30.35 in 10.0 mi East 5.8 mph - N/A   Overcast
9:26 AM 17.6 °F 8.2 °F 15.8 °F 93% 30.26 in 10.0 mi East 6.9 mph - N/A   Scattered Clouds
9:53 AM 19.0 °F 11.1 °F 15.1 °F 85% 30.35 in 10.0 mi ESE 5.8 mph - N/A   Partly Cloudy
10:53 AM 21.9 °F 13.4 °F 16.0 °F 78% 30.34 in 10.0 mi SE 6.9 mph - N/A   Clear
11:53 AM 27.0 °F 18.0 °F 17.1 °F 66% 30.30 in 10.0 mi SE 9.2 mph - N/A   Clear
12:53 PM 30.0 °F 19.5 °F 18.0 °F 61% 30.25 in 10.0 mi SE 13.8 mph - N/A   Clear
1:53 PM 32.0 °F 21.6 °F 18.0 °F 56% 30.22 in 10.0 mi SE 15.0 mph - N/A   Mostly Cloudy
2:53 PM 32.0 °F 23.6 °F 18.0 °F 56% 30.22 in 10.0 mi SSE 10.4 mph - N/A   Overcast
3:53 PM 32.0 °F 22.5 °F 18.0 °F 56% 30.20 in 9.0 mi SE 12.7 mph 18.4 mph 0.00 in   Overcast
4:53 PM 32.0 °F 21.6 °F 19.0 °F 59% 30.19 in 10.0 mi SSE 15.0 mph 21.9 mph 0.00 in   Overcast
5:53 PM 30.9 °F 22.8 °F 19.0 °F 61% 30.21 in 10.0 mi SSE 9.2 mph 19.6 mph N/A   Overcast
6:53 PM 30.0 °F 20.5 °F 19.9 °F 66% 30.21 in 10.0 mi SSE 11.5 mph 19.6 mph N/A   Overcast
7:53 PM 30.0 °F 20.5 °F 19.9 °F 66% 30.20 in 10.0 mi SSE 11.5 mph 18.4 mph N/A   Overcast
8:53 PM 30.0 °F 19.5 °F 19.0 °F 64% 30.19 in 10.0 mi South 13.8 mph 21.9 mph N/A   Overcast
9:53 PM 28.9 °F 19.2 °F 19.9 °F 69% 30.19 in 10.0 mi South 11.5 mph 18.4 mph N/A   Overcast
10:53 PM 28.9 °F 18.6 °F 21.0 °F 72% 30.19 in 10.0 mi South 12.7 mph 19.6 mph 0.00 in   Overcast
11:53 PM 28.9 °F 19.2 °F 21.0 °F 72% 30.16 in 10.0 mi South 11.5 mph 18.4 mph N/A   Overcast